Wind_Speed
42 42 41 39 37 36 35 34 33 33 32 32 31 31 31 31 31 31 31 31 31 30 29 28 27 26 25 23 24 25 23 21 21 21 20 20 20 18 17 16 16 16 18 17 13 12 13 11 10 9 8 9 9 10 10 11 11 11 12 13 14 15 16 16 17 18 18 19 20 19 20 20 20 21 22 23 25 25 26 26 26 25 25 25 25 25
43 43 40 38 37 37 36 36 36 35 34 33 33 32 32 32 32 32 32 31 31 31 30 30 29 27 26 25 25 25 23 21 22 22 22 22 21 19 18 18 18 19 20 18 15 15 15 13 12 11 11 11 11 11 12 13 14 14 14 14 15 16 17 18 19 19 20 21 21 21 22 22 21 21 22 23 24 26 27 27 27 27 27 27 26 27
42 42 40 39 39 38 38 38 37 37 35 34 34 33 33 32 32 32 33 32 32 32 31 31 30 28 27 27 25 25 23 22 24 24 23 23 22 20 20 21 21 21 20 19 18 18 16 15 14 14 13 13 14 14 14 15 15 16 17 17 18 19 19 20 21 21 22 23 23 23 23 24 23 23 23 23 24 25 26 27 28 29 30 29 29 28
40 39 39 39 39 39 39 38 37 36 35 34 34 34 33 33 33 34 34 34 33 34 33 32 32 29 28 28 26 26 25 24 25 25 24 24 22 22 23 23 23 22 21 21 20 20 18 17 16 16 16 16 16 17 17 17 17 18 19 20 21 22 22 23 23 24 24 25 26 26 25 25 25 25 25 25 26 26 27 28 29 30 31 31 31 31
40 39 39 39 40 40 39 38 37 36 35 34 34 34 34 34 34 35 35 35 34 34 33 33 33 30 29 29 27 28 27 25 26 26 24 24 23 23 24 24 24 24 23 23 22 22 20 19 19 19 19 19 18 19 19 20 20 20 21 22 23 24 25 25 26 26 27 27 27 28 27 27 26 27 27 28 28 28 28 29 30 31 32 32 32 32
43 42 41 40 41 40 40 39 37 37 36 35 35 34 34 35 35 35 35 35 35 35 34 34 35 32 30 30 29 29 29 27 27 26 24 25 25 25 25 25 25 25 25 24 24 24 23 22 23 22 22 22 22 21 21 22 22 23 24 24 25 26 27 28 28 29 29 29 29 29 28 27 27 28 29 30 30 30 30 31 31 32 33 33 34 34
44 43 43 42 42 41 41 40 38 37 37 36 36 35 36 36 36 36 36 36 37 36 35 35 36 34 31 30 30 29 29 29 29 27 26 26 27 27 27 27 27 26 26 26 25 25 25 25 25 25 25 24 25 24 24 24 25 25 25 26 27 28 30 30 31 31 31 31 30 29 28 27 28 29 30 31 31 32 32 32 32 32 33 33 34 35
44 44 44 44 43 43 42 41 39 39 38 37 36 36 37 37 37 37 37 38 38 37 37 36 36 36 32 29 30 30 30 31 30 29 27 28 30 29 28 28 29 29 28 27 27 28 28 28 27 27 27 27 28 27 27 27 27 27 28 28 29 30 32 32 32 32 32 32 31 30 28 28 29 30 31 31 31 32 33 33 34 34 34 34 35 35
43 43 43 43 43 42 41 41 40 40 40 39 38 38 38 38 38 38 39 39 39 39 38 36 36 38 34 28 28 30 30 31 30 30 30 30 31 30 29 29 30 30 29 29 29 30 30 30 29 29 29 30 31 30 30 29 30 30 31 31 31 31 33 33 33 33 33 33 31 30 29 30 30 31 31 31 31 33 34 35 35 35 35 36 36 37
43 43 43 43 43 43 42 42 42 41 41 40 39 39 39 39 39 40 40 40 40 40 39 37 36 38 36 28 27 30 30 30 30 31 32 32 31 30 30 30 31 32 31 31 32 32 32 31 31 31 31 32 32 33 33 33 33 34 34 34 33 33 33 33 34 34 34 33 31 31 31 31 31 31 31 31 32 33 35 35 36 36 36 37 37 38
44 44 44 44 44 44 44 44 43 42 42 41 40 40 40 40 41 41 41 40 40 41 39 38 36 37 38 30 26 29 30 30 30 32 33 32 31 31 31 32 33 34 34 33 33 34 34 33 33 33 33 34 34 35 35 36 36 37 37 36 35 34 34 33 34 34 34 33 33 33 33 32 32 32 32 33 34 35 35 36 36 37 38 38 38 39
45 45 46 45 45 45 44 44 44 43 42 41 41 40 40 41 41 41 41 41 42 41 40 40 37 37 39 32 26 29 31 31 32 32 31 31 31 32 33 34 34 35 35 35 35 35 35 35 34 35 35 36 36 36 37 38 39 39 39 39 38 36 35 35 35 35 35 35 34 33 33 33 34 34 34 35 35 36 36 36 37 37 38 39 39 40
45 45 46 46 46 46 45 45 44 43 42 41 41 41 41 41 41 42 42 42 42 41 41 40 37 38 39 33 29 30 30 31 32 31 31 31 32 33 34 34 35 36 36 37 37 37 37 37 36 37 37 38 38 38 39 40 40 41 41 41 40 39 37 36 36 36 36 36 35 34 35 35 36 36 36 36 36 37 36 36 36 37 38 39 41 42
44 45 45 45 46 46 46 45 44 43 42 42 41 40 40 40 40 40 40 41 41 40 41 40 39 40 39 35 33 31 29 30 31 31 32 32 33 34 35 35 36 37 38 39 39 39 39 39 39 39 39 40 40 40 40 40 41 41 42 42 42 41 40 38 38 37 37 37 37 37 37 37 38 38 38 38 38 38 37 37 37 37 39 40 42 44
43 44 43 44 44 44 44 44 43 42 42 41 40 40 39 39 39 39 39 40 39 40 41 41 41 41 39 37 35 33 31 30 31 33 33 33 34 35 35 36 37 38 39 40 41 41 41 41 41 41 41 41 41 41 41 40 41 41 41 42 42 42 42 41 40 40 39 40 40 40 40 39 40 40 40 40 40 39 39 39 39 40 41 42 44 45
45 44 43 43 43 43 43 43 43 43 42 42 41 41 40 40 40 40 40 40 39 40 41 41 42 40 37 37 36 35 33 32 33 34 35 35 36 37 37 37 38 39 40 41 42 43 42 42 42 42 42 41 41 41 41 40 41 41 42 42 43 43 43 42 42 43 43 43 43 43 42 42 42 43 43 43 42 42 42 41 42 42 43 44 45 47
45 44 44 43 43 42 42 42 42 42 42 42 42 41 40 40 40 40 41 40 40 41 41 40 40 38 36 36 36 35 34 34 34 34 35 36 37 38 39 39 39 40 40 41 42 43 43 43 42 42 42 41 41 41 41 41 42 42 43 43 44 44 43 43 43 44 44 45 44 44 43 43 44 45 45 45 44 44 44 44 44 45 46 46 47 47
45 45 44 44 44 43 43 42 42 42 41 41 41 41 40 40 40 40 41 41 41 42 41 39 38 36 35 35 34 33 34 34 34 33 33 34 35 37 39 40 40 41 41 42 42 42 43 43 43 43 42 41 41 41 42 43 43 44 44 44 44 45 44 44 44 44 45 44 44 43 43 44 45 46 46 46 46 46 45 45 46 47 47 48 48 48
48 47 46 45 45 44 44 44 44 43 43 43 43 42 42 43 42 41 42 42 42 42 41 39 38 36 35 34 32 33 34 35 35 34 33 33 34 36 37 38 39 39 40 41 42 42 42 43 44 43 42 42 43 43 44 44 45 45 45 45 45 45 45 45 45 45 44 44 43 43 43 44 45 46 46 46 47 47 46 47 48 48 49 48 48 48
51 50 50 48 47 46 46 46 46 45 44 44 45 44 44 44 43 42 42 42 41 41 41 40 39 37 34 33 33 34 34 35 35 35 35 34 35 35 36 36 37 38 39 40 41 41 41 42 43 43 44 44 45 45 45 46 46 46 46 46 46 46 47 46 45 44 44 43 43 43 44 45 45 46 46 47 47 47 48 48 48 48 48 48 48 48
54 53 52 51 50 50 49 48 46 46 45 45 45 44 43 42 42 42 41 41 41 41 41 41 42 39 35 34 35 35 34 35 36 36 37 37 37 37 38 38 38 39 39 40 41 41 41 43 44 45 46 47 47 47 47 48 48 48 48 49 49 48 47 46 45 44 44 44 44 44 45 45 45 46 47 48 48 48 48 48 48 48 48 48 48 49
57 56 55 55 54 52 50 49 48 48 47 46 45 45 43 43 43 43 43 43 43 44 44 45 45 41 36 36 37 37 36 36 37 37 38 39 40 41 41 41 41 41 42 42 43 43 44 45 47 48 49 49 50 50 49 49 50 50 50 50 50 48 47 47 46 45 45 44 44 44 45 45 46 47 48 49 49 49 49 48 48 48 48 49 50 50
58 57 57 57 55 53 53 52 51 50 49 49 48 47 46 46 46 46 47 46 46 47 47 47 48 44 37 37 38 38 38 38 38 39 40 42 42 42 43 43 43 44 44 45 46 47 48 49 50 51 51 52 52 52 52 51 51 52 51 51 50 49 47 47 46 46 45 44 44 45 45 46 47 48 49 50 50 50 49 49 50 50 50 51 51 51
59 59 59 58 57 57 56 55 54 53 52 52 50 48 48 49 49 50 51 50 50 50 48 49 50 45 38 38 39 40 41 41 42 42 43 44 44 44 44 44 45 46 46 48 49 50 51 51 52 52 53 53 53 53 53 52 53 53 53 52 51 50 49 47 46 46 46 46 46 47 47 48 48 49 50 50 50 50 51 51 52 52 52 52 52 51
59 60 60 60 60 60 59 58 57 56 55 54 52 52 52 53 54 54 53 53 54 52 49 51 51 45 40 41 42 44 45 45 46 46 46 46 46 46 47 48 49 49 50 51 52 53 54 53 53 54 55 55 54 53 53 53 54 54 54 53 52 52 51 47 45 46 47 48 48 49 49 49 50 50 50 50 50 51 52 53 53 53 53 52 51 50
61 61 61 61 62 62 61 60 57 55 55 55 55 54 55 55 55 54 53 55 55 52 51 54 51 46 44 45 46 48 49 49 49 48 48 49 50 50 51 52 53 53 53 54 55 55 55 54 55 57 58 57 55 55 55 55 56 56 55 55 55 54 52 48 47 48 49 49 50 50 51 51 51 52 51 52 52 53 53 53 53 53 52 52 50 49
62 63 63 63 63 63 61 58 56 54 54 55 54 54 54 54 54 54 55 57 54 52 55 55 52 49 48 49 51 51 51 51 51 52 52 54 54 55 55 55 56 56 55 56 57 57 56 55 57 59 60 59 59 59 59 60 59 59 58 58 58 57 54 51 50 50 50 51 51 52 53 53 53 53 54 54 55 55 55 54 53 52 51 50 49 48
63 64 64 64 64 63 61 60 60 58 57 56 55 55 55 55 55 56 58 57 54 56 59 55 53 53 52 51 53 53 53 55 55 56 57 58 59 59 58 57 57 57 57 57 58 59 58 58 60 62 63 63 63 64 63 63 62 61 60 60 59 57 55 54 53 52 52 53 53 54 54 54 55 56 57 57 57 56 55 53 52 51 49 49 48 48
65 65 64 64 64 63 62 62 63 62 61 61 60 61 60 60 60 61 61 59 57 61 61 55 56 58 55 53 54 54 56 58 58 59 60 61 62 61 59 57 56 58 59 59 59 59 60 61 62 64 67 67 67 67 66 65 63 62 61 60 59 57 57 56 56 56 55 55 55 55 55 56 57 58 58 58 57 56 53 51 50 49 48 48 47 48
65 65 64 65 65 64 63 64 64 63 64 63 62 63 63 63 64 64 63 61 61 64 63 59 62 62 56 55 57 56 58 59 59 60 61 61 61 61 59 58 58 58 59 58 58 59 61 63 64 66 69 69 68 68 67 66 64 63 62 61 61 60 59 58 58 58 58 58 58 58 59 59 59 58 57 56 55 53 51 50 49 48 48 48 48 48
62 63 63 64 65 66 65 65 65 65 66 65 65 64 64 64 65 65 65 64 65 67 66 65 67 65 57 58 61 60 59 61 60 60 60 60 60 60 60 61 60 60 58 58 59 60 63 66 67 68 69 68 68 67 67 66 65 65 64 64 63 62 61 60 60 60 60 60 61 61 61 59 58 56 55 54 53 52 50 49 48 47 48 48 49 49
61 62 62 62 64 66 65 65 66 66 66 67 67 66 65 66 66 66 66 66 67 68 67 68 69 65 58 59 62 61 61 62 61 60 60 59 60 60 61 62 62 62 61 61 62 64 65 66 67 67 67 67 67 67 67 68 68 67 66 66 65 64 63 63 62 62 62 62 62 61 59 57 55 54 53 52 51 50 49 48 48 48 48 48 48 48
62 62 63 62 63 65 65 65 64 64 66 69 69 66 66 67 67 68 68 67 67 67 68 69 69 64 61 63 65 63 63 63 62 60 60 60 60 61 62 63 64 65 65 66 66 67 66 66 66 67 68 68 68 68 68 69 70 70 69 69 68 67 66 65 64 64 62 61 59 58 56 55 53 51 51 50 50 50 49 49 49 49 49 48 48 48
62 63 63 63 64 65 66 66 64 64 68 70 67 65 65 67 67 67 68 67 67 67 68 69 68 67 66 67 67 66 65 63 62 61 62 62 63 63 63 63 64 65 67 68 68 68 69 69 69 70 71 71 71 71 71 72 73 73 72 72 70 69 67 65 64 62 60 58 57 55 54 53 51 50 50 50 50 50 50 50 50 50 50 50 51 52
63 62 63 64 64 65 67 68 68 69 70 69 66 66 68 68 67 67 68 69 68 68 69 69 69 69 67 66 66 66 66 65 65 64 64 65 66 66 66 66 67 67 68 69 70 70 71 72 72 73 73 73 73 73 73 73 73 72 72 70 69 67 65 62 60 58 57 56 55 54 53 53 52 51 51 51 51 52 52 52 52 53 53 53 54 54
63 64 64 65 65 66 68 70 72 73 71 68 66 67 68 69 69 69 70 71 69 68 68 68 68 67 67 66 66 67 68 68 68 68 67 68 67 67 66 66 65 65 65 65 66 67 67 68 69 69 69 69 69 68 68 68 68 67 67 66 65 63 61 59 57 56 56 56 56 56 56 56 55 55 55 55 56 56 55 55 55 56 56 56 57 58
63 64 64 65 66 67 68 71 71 71 71 69 68 68 68 70 70 69 70 71 69 67 68 68 68 68 67 66 65 64 65 66 66 66 66 65 63 62 61 61 60 60 59 59 60 60 61 62 62 63 63 63 63 63 63 64 64 63 63 63 62 62 60 59 58 58 57 58 58 59 59 59 59 60 61 61 61 59 58 58 58 59 60 60 61 62
62 63 62 64 66 65 66 68 69 69 69 67 65 64 65 67 66 66 68 69 67 65 65 65 65 64 62 60 60 60 61 62 63 63 62 61 60 59 59 58 58 58 58 58 58 58 58 59 59 60 60 60 61 61 62 62 62 62 62 62 62 62 62 62 61 61 61 62 63 63 64 64 65 65 65 66 65 64 63 62 63 64 64 65 66 66
60 61 61 62 63 62 63 64 65 66 64 60 58 59 60 61 61 62 65 65 62 60 61 61 61 60 59 58 59 59 61 62 62 61 61 60 59 59 59 58 57 57 57 56 56 57 57 58 59 59 60 60 60 61 61 62 62 62 63 64 64 64 64 64 65 65 66 67 68 69 69 69 69 68 68 68 68 67 67 67 67 68 69 69 70 70
57 57 58 59 60 59 60 62 63 62 59 56 55 57 57 58 59 61 64 63 59 58 58 59 59 58 57 58 60 60 62 63 62 62 62 61 60 60 60 59 57 56 56 56 57 58 59 60 61 62 62 62 62 62 63 64 65 65 66 66 67 67 68 68 69 70 71 72 73 73 73 72 72 71 71 71 71 70 71 71 71 72 73 73 74 74
56 55 56 58 58 58 59 60 61 62 59 56 55 56 58 59 61 63 63 60 58 57 58 58 59 56 55 56 58 59 61 61 61 62 62 61 61 60 59 58 56 56 56 58 59 61 62 64 65 65 66 66 66 66 67 67 68 69 69 70 70 71 71 72 73 74 75 75 76 75 75 75 75 74 74 74 74 73 74 74 75 76 76 77 77 77
60 59 59 58 59 60 60 60 62 62 58 55 56 58 60 63 64 62 60 58 58 58 58 59 60 58 56 57 58 59 61 61 61 62 61 61 61 60 59 59 58 59 59 61 62 63 64 65 67 68 69 69 69 70 70 71 71 72 73 73 74 74 75 75 76 77 78 78 78 78 78 78 78 77 77 77 77 76 76 77 79 79 80 80 80 80
64 64 63 62 61 62 62 62 63 60 53 51 56 59 61 63 63 61 60 59 59 59 59 60 61 61 60 59 59 60 61 62 63 63 63 63 63 62 62 63 63 64 65 66 66 67 67 68 69 70 71 71 72 73 74 74 75 76 77 77 78 78 78 78 78 79 79 79 80 80 80 80 79 80 80 79 80 80 79 80 81 82 82 83 83 82
67 66 66 65 64 65 66 66 65 60 54 53 56 59 60 61 61 62 62 62 61 61 60 61 62 63 63 62 62 61 61 62 63 64 64 65 65 65 65 66 68 70 71 72 72 72 71 71 72 73 74 74 75 76 77 78 79 80 81 81 81 81 81 80 80 80 81 81 81 81 81 81 81 82 82 82 82 82 82 82 83 83 84 85 85 85
67 66 66 65 65 67 68 67 67 65 64 63 62 62 63 62 61 61 62 62 63 63 63 63 64 64 64 64 64 64 64 64 65 65 65 66 67 67 68 70 71 73 75 75 76 76 75 75 75 76 77 78 78 79 80 80 81 82 83 83 83 83 82 82 82 82 83 84 84 84 84 84 84 85 85 85 85 85 84 84 85 85 85 86 86 87
65 66 66 66 67 68 68 68 67 67 67 67 67 68 69 68 67 66 65 64 64 65 65 65 66 66 66 66 65 65 66 66 67 67 67 67 68 69 71 72 74 76 77 78 78 78 78 78 78 78 79 80 80 81 81 82 83 83 83 83 84 84 84 84 84 85 86 87 87 87 87 87 87 87 87 87 86 86 85 85 85 86 87 87 88 89
64 65 66 66 67 68 68 68 67 67 67 68 69 70 71 72 72 72 72 71 70 70 69 69 69 69 70 70 70 70 69 69 69 69 70 70 71 72 74 75 76 77 78 79 79 79 79 79 79 80 80 80 81 81 81 82 82 83 84 84 85 85 85 86 86 87 89 90 90 90 90 90 90 89 88 87 86 85 85 86 87 89 90 91 92 93
63 64 65 66 66 67 68 68 68 68 68 69 69 69 69 69 70 71 72 72 72 72 73 73 73 73 74 74 75 75 75 74 74 74 74 74 74 74 75 76 77 78 78 79 79 79 79 79 79 79 80 80 80 79 79 79 79 80 82 84 85 86 86 87 88 89 90 91 91 91 91 91 91 90 89 87 86 86 87 89 91 93 94 94 95 96
62 63 64 65 66 66 67 66 66 66 66 66 65 65 66 66 67 67 68 68 69 69 69 70 70 71 72 73 74 74 74 74 74 74 73 73 73 73 73 72 72 72 73 74 74 75 76 76 76 77 77 77 77 77 77 77 78 79 81 83 84 85 86 87 88 89 90 91 91 91 91 92 91 90 88 86 87 88 91 93 95 95 95 95 96 97
62 63 63 63 64 64 63 62 61 61 61 62 63 64 65 65 66 66 65 65 65 66 66 66 66 67 67 68 68 68 68 68 68 68 69 69 69 70 70 69 69 68 68 69 69 70 71 72 73 73 74 74 75 75 76 77 78 80 81 82 84 84 85 86 87 88 90 91 91 91 91 91 90 89 88 89 92 94 95 95 96 96 96 96 97 99
61 61 61 61 61 61 60 59 59 60 60 60 61 62 63 63 63 64 64 64 64 64 64 65 65 65 65 65 66 66 67 66 66 66 66 65 66 67 68 68 68 70 71 71 71 71 72 72 73 73 73 74 75 75 76 77 78 79 80 81 82 83 85 86 87 87 87 88 89 90 91 92 92 92 94 97 99 100 100 99 97 97 98 100 101 103
Wind_Direction
218 220 221 222 224 226 227 228 229 230 230 231 232 233 233 234 233 231 230 228 227 227 226 226 225 227 229 227 227 228 225 224 228 229 230 232 233 235 234 233 230 229 232 234 230 233 238 239 241 245 254 263 272 278 285 292 299 307 312 316 321 324 327 329 329 330 329 327 326 324 323 321 320 317 312 309 306 306 307 307 309 311 311 311 311 311
219 220 221 221 222 223 224 226 227 229 229 231 232 233 233 234 234 233 232 230 229 229 228 228 227 227 230 231 229 230 227 224 228 229 230 234 237 238 238 238 234 232 236 239 237 239 242 247 250 253 259 267 275 281 285 289 293 299 304 308 313 317 319 319 321 324 325 325 323 320 319 318 319 318 315 313 310 308 307 307 307 306 305 305 306 308
220 220 220 220 220 221 223 224 226 228 230 231 233 234 234 234 234 233 233 231 230 231 230 230 230 227 231 236 234 232 228 225 229 230 231 236 238 239 238 238 237 236 239 244 245 246 247 251 256 258 261 266 274 281 286 289 293 297 299 303 309 313 314 314 315 317 320 323 322 319 315 315 315 315 315 314 313 311 310 308 305 303 302 301 302 303
222 221 221 221 221 222 224 225 227 230 231 232 234 234 234 233 233 232 232 231 231 232 231 232 233 229 231 237 237 236 231 227 231 233 233 238 239 238 237 237 239 239 241 246 250 252 254 257 261 263 265 268 272 279 284 289 294 297 298 300 305 310 311 311 312 313 315 318 319 318 314 311 312 312 313 313 312 312 311 308 306 304 303 302 302 301
220 221 222 222 222 223 226 227 229 231 232 233 234 234 233 232 232 231 231 232 232 233 233 234 235 232 231 236 237 238 237 231 233 235 235 239 241 240 240 238 238 239 242 247 251 255 258 261 265 267 270 271 274 277 282 288 293 296 297 299 302 306 308 308 308 309 312 314 315 316 312 308 308 309 310 310 310 310 309 308 307 306 304 303 302 301
220 221 222 222 223 224 226 227 228 230 230 231 232 233 233 231 232 232 232 233 233 234 234 235 237 234 230 234 236 238 241 237 236 237 235 239 242 243 245 244 242 241 243 247 252 257 260 263 266 269 271 273 276 278 282 286 290 293 295 297 299 302 304 304 305 306 308 310 311 312 309 304 303 305 306 306 306 306 305 305 305 304 303 303 302 301
220 222 223 223 224 224 226 227 228 229 230 230 231 231 232 231 232 233 233 234 234 235 235 235 239 238 231 232 236 237 240 241 241 240 238 240 243 243 244 247 248 247 247 250 255 258 261 263 267 270 273 276 278 279 282 284 288 291 292 293 296 298 299 300 301 303 305 307 308 308 305 301 300 301 302 302 302 301 301 302 302 301 300 300 299 298
222 223 224 225 226 226 227 228 228 229 230 230 231 231 231 232 232 233 234 235 236 236 236 236 240 242 236 230 235 239 240 242 243 243 242 242 244 245 245 247 249 250 250 253 256 258 261 264 267 271 275 277 279 281 282 285 288 290 290 291 293 295 296 298 299 301 303 304 305 304 302 300 299 299 300 300 299 298 299 299 299 299 299 297 296 295
223 224 225 226 227 227 228 228 228 229 230 230 230 231 232 232 233 234 235 236 237 237 237 237 240 245 242 232 233 240 242 242 243 244 245 245 246 248 249 249 251 252 252 253 255 258 261 265 268 272 274 277 279 282 284 286 288 290 290 291 291 293 294 296 298 300 301 302 302 301 300 299 298 298 298 298 297 297 297 298 298 298 297 296 294 294
222 223 224 225 226 226 227 227 228 228 230 230 231 231 232 233 234 235 236 237 238 238 238 238 240 245 247 237 232 239 243 243 244 245 246 247 249 250 251 252 254 255 255 254 256 259 262 265 268 271 274 276 279 283 285 287 289 290 290 290 290 292 293 295 298 298 299 299 299 299 299 298 298 298 297 296 296 296 296 297 297 297 296 295 294 294
220 221 223 224 225 225 226 226 227 227 229 230 231 231 232 234 235 236 237 238 240 240 239 240 240 245 249 242 232 237 241 243 244 245 247 250 251 252 253 254 255 257 257 257 259 261 263 266 269 271 274 276 279 282 285 287 289 290 290 290 290 291 293 295 297 296 297 297 297 298 298 298 298 298 297 296 296 296 296 296 296 296 295 295 295 295
221 222 222 223 224 225 225 227 227 228 229 230 231 232 233 235 236 237 238 239 240 240 240 242 241 243 248 246 236 235 238 240 242 244 247 250 252 254 254 255 256 257 259 260 260 262 264 267 269 271 273 275 278 280 283 285 287 288 289 289 290 292 293 295 295 295 296 297 297 298 298 298 299 298 298 297 296 296 295 295 295 295 294 294 294 294
222 223 223 223 224 225 226 227 228 229 230 231 232 233 234 235 237 238 240 241 242 242 243 244 243 243 247 249 243 238 238 240 243 245 247 249 251 252 253 255 256 258 259 260 261 262 264 266 268 270 272 275 277 279 281 282 284 285 287 288 290 292 293 294 295 296 297 297 297 298 298 298 299 299 298 297 296 295 295 294 294 293 293 293 293 293
224 224 225 225 225 226 227 228 230 231 232 233 234 235 235 237 239 241 242 243 244 245 245 245 245 244 245 248 247 245 243 243 245 248 249 249 250 251 252 253 255 256 258 260 261 262 264 266 268 270 271 273 275 277 278 279 281 282 284 286 289 291 292 294 295 296 297 297 297 298 298 298 298 298 297 296 295 294 294 293 292 291 291 291 291 292
226 226 227 228 228 228 230 231 232 232 233 234 234 235 236 238 240 241 243 244 244 244 245 245 245 245 246 248 250 251 249 248 248 250 251 251 252 253 253 253 254 255 257 260 261 262 264 266 268 270 271 273 274 276 277 278 279 280 282 285 287 289 292 294 296 296 296 297 297 297 296 296 296 296 295 294 294 293 293 292 292 291 291 291 290 291
225 226 226 228 230 230 231 231 232 232 233 234 234 235 237 238 240 241 242 243 243 244 244 245 246 247 248 250 252 253 253 251 251 252 254 256 257 257 257 256 257 257 258 260 262 264 266 267 269 270 272 273 275 276 276 278 279 281 283 285 287 289 291 292 293 294 295 295 295 295 295 295 296 295 294 293 293 292 292 291 291 290 290 290 290 290
227 227 227 228 229 230 231 232 233 234 235 236 236 237 238 240 241 242 244 244 245 245 245 246 247 247 248 250 251 254 254 254 253 252 254 256 257 260 261 262 261 261 262 263 265 267 268 270 271 272 273 274 275 275 276 278 279 281 283 284 285 286 287 287 288 288 289 289 289 290 292 294 294 293 291 291 291 290 290 290 289 289 289 289 288 288
231 231 230 230 231 231 232 233 233 234 235 236 237 238 239 240 241 242 244 244 245 246 246 246 247 247 247 248 250 253 255 256 256 254 254 255 256 259 261 262 263 264 265 267 268 269 270 272 272 273 274 274 274 275 275 276 277 279 280 281 281 282 282 282 283 283 283 284 285 287 289 289 288 287 287 287 287 287 287 287 287 288 288 288 287 287
232 233 232 231 232 233 233 233 233 233 234 236 237 237 238 240 241 241 244 245 246 248 248 247 247 246 246 248 250 251 254 256 257 258 257 256 257 257 259 261 262 264 266 268 269 270 271 272 274 275 275 274 274 274 274 275 276 277 278 279 279 279 279 280 280 281 282 283 284 285 284 283 282 283 284 284 284 285 285 286 287 287 288 287 287 287
233 234 234 233 233 234 234 235 235 236 236 238 239 239 240 242 243 244 246 248 249 251 251 250 248 246 245 247 248 249 251 255 259 260 261 261 260 260 261 262 263 264 265 267 269 270 271 273 274 275 275 274 274 275 275 276 276 277 278 278 278 279 279 280 281 281 282 283 283 282 282 281 282 283 283 284 284 285 286 287 287 287 288 288 287 287
234 234 236 236 235 235 236 236 237 238 239 240 241 243 244 246 248 250 251 251 253 254 254 252 249 245 244 246 248 249 251 254 257 259 261 264 265 265 266 265 265 266 266 267 269 271 272 272 273 273 274 275 275 276 276 276 277 277 277 278 279 279 280 280 281 282 281 281 281 281 281 282 283 283 284 285 285 286 287 287 288 288 288 288 287 287
235 236 236 237 237 237 238 238 239 240 240 241 242 243 244 246 247 249 250 250 251 252 252 252 250 245 243 246 248 250 251 252 255 258 261 264 266 268 269 270 271 271 271 271 272 272 272 272 273 274 275 276 276 276 276 276 277 277 278 279 279 280 280 281 281 281 280 279 279 280 281 281 282 283 284 285 285 287 287 288 288 288 288 288 287 286
238 238 238 239 239 239 239 239 239 240 241 241 241 241 243 245 245 247 249 249 249 250 250 253 253 247 244 248 250 253 254 254 256 258 260 263 265 267 269 271 272 273 274 274 274 273 273 273 274 275 275 275 275 275 276 277 278 278 279 280 280 279 280 281 281 280 280 280 281 281 281 282 282 282 283 284 284 286 286 287 287 287 287 287 286 286
238 239 239 240 240 240 240 240 240 241 242 243 243 244 246 247 248 249 250 250 250 250 251 254 255 251 250 253 254 256 257 257 257 259 261 264 266 269 271 272 274 274 274 274 274 274 274 274 274 274 274 274 275 276 278 279 280 280 280 280 280 280 280 281 281 281 282 283 283 283 282 282 281 281 282 282 283 284 285 286 286 286 286 285 285 284
240 240 240 240 240 239 239 240 240 241 243 245 246 246 247 248 249 249 250 251 251 252 253 255 256 255 256 257 256 257 258 259 260 263 265 268 270 273 274 274 274 274 274 274 274 274 274 275 275 275 275 276 278 280 281 281 282 282 281 280 279 278 280 281 281 281 282 283 283 283 282 281 280 280 280 281 282 283 284 284 284 284 284 284 283 282
240 240 240 241 241 240 241 242 244 246 247 248 248 248 249 249 250 251 252 252 252 254 255 256 258 257 258 259 259 259 261 262 264 266 268 269 270 271 272 272 272 273 273 274 275 275 276 276 276 276 278 279 281 281 282 282 282 281 280 279 278 279 282 283 282 281 282 282 282 282 281 280 280 280 281 282 282 283 283 283 283 282 282 281 281 281
239 240 240 241 242 243 244 245 247 248 249 249 250 251 252 252 253 253 253 253 255 257 256 257 258 258 256 258 260 261 263 265 266 267 267 267 267 268 268 269 271 272 273 275 276 277 278 279 279 280 281 281 281 281 281 281 280 280 279 280 281 282 284 284 283 283 283 283 282 282 281 281 282 283 283 283 283 283 283 282 282 281 280 279 278 278
240 241 241 242 243 244 245 245 244 244 244 245 246 247 248 249 250 250 251 252 254 255 255 256 258 257 255 256 258 260 262 263 264 265 265 266 266 266 267 269 272 274 275 276 276 277 278 279 280 281 281 280 280 280 280 279 280 280 281 281 283 284 285 286 285 285 284 283 283 282 283 283 284 284 283 283 283 282 282 281 280 279 277 276 275 275
241 242 243 244 245 245 245 246 246 245 245 245 244 244 244 245 245 247 249 251 251 253 256 258 257 256 257 257 258 259 261 262 263 265 266 267 268 269 270 271 273 275 275 275 276 278 278 277 278 278 279 279 279 280 280 280 281 281 282 283 283 284 285 286 286 286 286 286 286 285 285 284 284 283 283 282 282 281 281 280 278 277 276 274 274 274
241 243 244 244 245 245 245 246 247 247 247 246 246 246 246 246 247 249 251 254 254 256 258 258 256 257 258 260 260 260 260 262 263 265 267 269 270 272 273 274 273 273 273 274 275 275 275 274 274 275 276 278 279 280 280 281 281 282 282 282 283 284 285 285 286 287 288 288 287 287 286 284 284 283 282 281 281 280 280 279 278 277 275 274 274 274
241 242 243 244 245 244 244 246 247 247 247 247 246 245 246 247 249 251 254 256 256 256 257 256 256 258 260 261 261 261 261 262 263 264 267 269 270 271 271 271 272 272 272 272 272 271 272 273 274 274 275 276 277 278 279 280 280 281 281 282 283 284 284 285 286 287 287 287 286 285 284 283 282 281 281 280 280 280 280 279 278 277 276 276 276 274
241 242 242 243 244 244 244 245 246 247 247 247 245 245 247 249 252 254 255 255 255 256 256 256 257 260 261 262 261 261 261 262 263 264 265 266 266 267 267 268 269 270 271 271 271 271 272 273 274 275 275 275 276 277 278 278 279 280 281 282 283 283 284 285 285 285 284 284 283 282 282 281 281 280 280 280 280 279 279 278 278 278 277 277 276 275
242 242 242 243 244 244 244 245 246 246 246 245 246 249 251 253 254 254 254 253 254 256 257 258 260 261 261 260 260 260 260 261 261 262 263 264 264 265 265 266 267 268 269 270 271 272 273 273 274 274 275 276 276 277 278 279 280 281 281 282 283 283 284 283 283 283 282 281 280 280 280 280 281 281 280 280 280 279 278 278 278 278 277 277 276 276
241 241 242 242 243 244 244 244 245 244 244 246 250 252 253 254 254 254 254 254 255 256 258 259 260 260 259 260 261 262 262 262 262 262 263 263 264 264 265 265 266 266 267 269 270 271 273 274 274 275 276 277 278 279 279 280 281 281 282 283 283 283 283 282 282 281 280 280 279 279 280 280 281 281 281 281 280 280 279 278 277 277 277 278 278 278
239 240 241 242 243 244 244 244 244 244 246 250 252 251 251 253 253 254 255 255 255 256 257 259 260 261 262 263 264 264 264 264 264 263 263 264 264 264 265 265 266 266 267 268 269 270 271 273 274 275 276 277 278 279 280 280 281 281 281 281 281 281 281 280 280 280 280 280 281 281 282 282 282 282 282 282 281 280 279 278 277 277 278 279 279 279
238 239 241 242 243 243 244 244 245 248 250 251 250 250 252 253 254 255 256 256 256 257 259 260 261 262 263 263 263 264 264 265 265 266 266 266 266 266 267 267 268 268 268 268 269 270 271 272 274 275 276 277 278 278 278 279 279 279 279 280 280 280 279 279 279 279 280 281 282 283 284 284 284 284 283 283 282 280 279 278 279 279 280 280 281 282
239 239 240 242 243 244 246 247 248 251 251 250 250 252 253 254 255 256 258 257 257 258 260 261 262 263 263 264 264 265 265 265 266 267 268 268 268 269 269 270 270 269 269 269 269 270 271 271 272 273 274 275 275 276 276 277 277 278 278 279 279 279 279 279 279 280 281 282 283 283 284 284 284 284 284 284 283 282 281 280 281 282 283 284 285 286
242 242 243 244 245 246 247 248 250 251 251 251 252 253 253 254 254 256 257 257 257 258 260 262 263 264 264 264 264 264 264 265 266 268 268 269 270 270 271 271 270 270 270 270 269 269 270 270 271 271 272 272 273 274 275 276 276 277 278 278 278 279 279 279 279 280 281 282 282 283 283 283 283 284 284 284 284 284 284 284 285 287 288 289 290 291
242 243 244 245 246 246 247 248 249 250 251 251 250 250 251 253 254 255 257 257 257 259 260 261 262 262 263 263 262 262 262 264 267 268 267 268 269 270 270 270 270 270 270 269 270 270 270 270 270 270 271 271 272 272 273 274 275 276 276 277 277 278 278 278 279 280 281 282 283 283 283 283 284 284 285 285 285 285 286 286 288 289 291 292 293 293
242 243 244 245 246 246 247 248 249 250 250 249 249 250 252 254 254 255 257 258 258 259 259 259 260 260 261 262 261 261 262 263 265 265 266 267 267 267 268 268 268 269 269 270 271 271 271 271 271 271 271 271 271 271 272 273 274 275 275 276 276 277 277 277 278 279 281 282 282 282 282 283 283 284 285 285 285 285 286 286 287 289 291 292 293 293
244 246 248 250 251 252 253 255 256 254 251 250 251 253 254 256 256 255 257 260 260 258 258 258 259 258 258 259 260 260 261 262 262 263 264 265 265 266 266 266 266 268 271 272 273 274 274 274 274 273 273 273 272 272 272 273 273 274 275 275 276 276 276 277 278 279 280 281 281 281 281 282 283 284 285 286 286 286 286 287 287 288 290 291 291 291
246 247 248 249 251 253 255 256 257 256 255 254 256 256 257 259 260 259 260 262 261 259 258 258 258 258 258 259 260 260 260 260 260 261 262 263 263 264 263 263 265 269 272 274 275 275 275 276 275 275 275 274 274 273 273 273 273 274 275 275 276 276 277 278 279 279 279 280 280 280 281 281 282 284 286 287 287 287 287 287 287 288 289 289 290 290
247 248 247 246 246 248 249 248 249 253 256 258 258 258 259 262 264 265 264 263 262 261 260 259 260 261 261 262 264 263 263 262 262 262 262 263 263 263 263 264 266 270 273 275 276 276 276 276 276 275 275 274 274 273 273 273 273 274 275 275 276 276 277 278 278 278 278 279 279 280 281 282 284 285 286 287 288 288 288 287 286 286 287 288 289 289
246 247 248 248 247 247 248 248 249 252 254 253 252 253 255 258 261 263 264 264 265 265 264 264 266 266 267 268 268 268 267 266 265 265 265 264 264 264 265 267 269 272 274 276 277 277 277 277 277 277 276 275 275 274 274 274 274 274 274 275 276 276 277 278 279 280 280 281 282 283 284 285 286 286 287 287 287 287 287 286 286 286 287 288 289 289
244 245 247 248 248 248 249 250 252 253 253 251 250 251 252 253 255 256 258 260 262 263 265 266 267 268 269 270 270 270 270 269 268 267 267 266 266 266 267 269 271 274 275 276 277 277 278 278 278 278 278 278 277 277 277 276 276 276 277 278 279 280 281 282 283 283 284 285 286 286 286 286 286 286 286 286 287 286 286 286 286 286 287 287 288 289
243 244 244 245 246 247 248 249 250 251 252 252 251 251 252 253 254 255 256 257 258 259 260 261 262 264 265 266 267 268 268 268 268 267 267 267 267 267 268 270 272 273 274 275 276 276 276 277 278 278 278 277 277 277 278 278 278 279 279 280 280 281 282 283 284 284 285 285 285 285 285 285 285 285 285 285 285 285 285 285 285 285 286 287 287 287
242 243 244 244 245 246 247 248 249 250 250 251 251 251 252 253 254 255 257 259 260 261 261 261 261 262 262 264 265 266 266 266 266 267 267 268 268 268 269 270 271 273 273 274 274 275 275 275 276 276 276 275 275 275 276 276 277 277 277 278 278 279 280 281 281 282 283 283 283 283 283 283 283 283 283 283 283 283 284 284 285 285 286 286 286 286
244 244 246 247 248 249 249 249 249 250 251 251 252 253 254 255 256 257 259 260 261 262 262 262 262 262 263 263 264 265 266 267 267 268 269 270 271 271 272 272 273 273 274 274 274 274 274 274 274 274 273 273 273 273 273 272 273 273 274 275 276 276 277 277 278 279 279 279 280 279 279 279 280 280 280 280 281 282 283 283 284 284 284 285 284 284
247 247 248 250 251 252 252 253 253 254 255 255 256 257 258 259 260 260 261 261 262 262 262 263 263 263 264 264 265 266 267 268 269 270 270 271 272 273 274 274 273 273 272 272 272 272 272 272 272 271 270 270 269 269 268 268 268 268 269 270 272 273 274 274 275 275 276 276 276 276 277 277 278 278 278 279 280 281 282 283 283 283 283 283 283 284
250 250 251 252 253 255 256 257 258 258 258 259 259 259 260 260 261 261 261 261 261 262 262 263 263 264 264 265 266 266 267 268 269 270 271 272 272 273 273 272 271 269 269 268 267 266 266 265 265 265 264 264 264 263 263 263 263 264 264 265 267 268 269 270 270 271 272 273 274 275 276 277 277 277 278 280 281 282 282 283 283 283 283 283 283 284
252 253 254 255 256 257 257 258 258 259 259 260 260 261 262 263 263 264 264 264 264 264 264 264 264 264 264 264 265 265 265 266 267 269 270 271 271 270 270 269 268 267 266 265 264 262 261 259 258 258 257 257 258 258 258 258 259 259 260 261 262 263 264 266 267 268 269 271 273 275 277 278 278 279 280 281 282 282 281 281 281 281 282 283 284 284
Height
5803 5805 5809 5813 5816 5818 5819 5821 5822 5824 5826 5827 5828 5830 5831 5833 5834 5836 5837 5839 5840 5841 5843 5845 5846 5848 5849 5850 5851 5852 5854 5856 5856 5857 5858 5858 5859 5861 5862 5862 5863 5863 5863 5864 5865 5866 5866 5866 5867 5867 5867 5867 5867 5867 5867 5867 5866 5866 5866 5865 5864 5864 5864 5863 5863 5862 5861 5861 5860 5859 5858 5857 5857 5856 5855 5854 5854 5853 5852 5852 5851 5850 5849 5848 5847 5846
5800 5804 5808 5810 5811 5813 5814 5816 5818 5820 5822 5824 5825 5827 5829 5830 5832 5833 5835 5837 5838 5839 5841 5842 5843 5845 5847 5848 5849 5850 5853 5854 5855 5855 5856 5857 5858 5859 5860 5861 5861 5861 5861 5862 5863 5864 5864 5865 5865 5865 5866 5866 5866 5866 5866 5865 5865 5864 5864 5864 5863 5863 5862 5862 5861 5861 5860 5859 5858 5857 5856 5855 5855 5854 5853 5853 5852 5851 5850 5849 5848 5847 5846 5846 5845 5844
5798 5803 5805 5805 5807 5809 5811 5813 5815 5817 5819 5821 5823 5824 5826 5828 5829 5831 5832 5834 5835 5836 5838 5839 5841 5843 5845 5845 5847 5849 5851 5852 5853 5853 5855 5855 5856 5858 5858 5858 5859 5860 5860 5860 5861 5861 5862 5863 5863 5863 5864 5864 5864 5864 5864 5863 5863 5863 5862 5862 5861 5861 5861 5860 5859 5859 5858 5857 5856 5855 5854 5853 5853 5852 5851 5851 5850 5849 5848 5847 5846 5845 5844 5843 5843 5842
5798 5801 5801 5802 5805 5807 5808 5811 5813 5815 5817 5819 5820 5822 5824 5825 5827 5828 5829 5831 5832 5834 5835 5837 5838 5841 5843 5843 5845 5846 5848 5850 5850 5852 5853 5853 5855 5855 5856 5856 5857 5858 5858 5858 5858 5859 5860 5860 5861 5861 5861 5862 5862 5862 5862 5861 5861 5861 5860 5860 5859 5859 5858 5858 5857 5856 5856 5855 5854 5853 5852 5851 5851 5850 5849 5848 5847 5847 5846 5845 5843 5842 5841 5840 5840 5839
5794 5796 5797 5800 5802 5804 5806 5809 5811 5813 5814 5816 5818 5819 5821 5822 5824 5825 5826 5828 5830 5831 5833 5834 5835 5838 5840 5841 5843 5844 5845 5848 5848 5849 5851 5852 5852 5853 5853 5854 5855 5855 5855 5856 5856 5856 5857 5858 5858 5858 5859 5859 5859 5859 5859 5859 5859 5859 5858 5858 5857 5857 5856 5855 5855 5854 5853 5853 5852 5851 5850 5849 5848 5847 5847 5846 5845 5844 5843 5841 5840 5839 5837 5837 5836 5835
5789 5791 5794 5797 5799 5801 5803 5806 5808 5810 5811 5813 5815 5816 5818 5819 5821 5822 5824 5825 5827 5828 5830 5831 5831 5834 5838 5839 5840 5841 5842 5844 5845 5847 5849 5849 5850 5850 5851 5851 5852 5853 5853 5853 5854 5854 5855 5855 5855 5856 5856 5856 5856 5857 5857 5857 5857 5856 5856 5855 5855 5854 5853 5853 5852 5851 5851 5850 5849 5848 5847 5846 5846 5845 5844 5843 5842 5841 5840 5838 5837 5835 5834 5833 5832 5831
5785 5788 5791 5794 5796 5798 5800 5803 5805 5806 5808 5810 5812 5813 5815 5816 5818 5819 5821 5822 5823 5825 5827 5828 5828 5830 5835 5837 5838 5839 5840 5841 5843 5845 5847 5847 5847 5847 5848 5848 5849 5850 5851 5851 5852 5852 5852 5852 5852 5853 5853 5854 5854 5854 5854 5854 5854 5854 5853 5853 5852 5851 5850 5850 5849 5849 5848 5847 5846 5845 5845 5844 5843 5842 5841 5840 5839 5838 5837 5835 5834 5833 5831 5830 5829 5828
5784 5786 5788 5791 5793 5795 5798 5800 5802 5803 5805 5807 5809 5810 5811 5813 5815 5816 5817 5819 5820 5822 5823 5825 5825 5826 5831 5835 5836 5837 5838 5838 5840 5842 5844 5844 5843 5844 5846 5847 5847 5847 5849 5849 5849 5849 5849 5849 5850 5850 5850 5850 5850 5850 5851 5851 5851 5851 5850 5849 5849 5848 5847 5847 5846 5845 5845 5844 5843 5842 5841 5841 5840 5839 5838 5837 5836 5835 5834 5832 5831 5830 5828 5827 5826 5824
5781 5782 5785 5787 5790 5793 5795 5797 5798 5800 5801 5804 5806 5807 5808 5810 5811 5812 5814 5815 5816 5818 5820 5822 5824 5823 5826 5833 5834 5834 5835 5836 5838 5840 5840 5840 5841 5842 5843 5844 5844 5845 5846 5847 5846 5846 5846 5847 5847 5847 5847 5847 5847 5847 5847 5847 5847 5847 5847 5846 5845 5845 5844 5844 5843 5842 5841 5840 5840 5839 5838 5837 5837 5836 5835 5834 5833 5832 5831 5829 5828 5826 5825 5823 5822 5821
5775 5778 5781 5783 5786 5789 5792 5793 5794 5796 5798 5800 5802 5803 5805 5806 5807 5809 5810 5812 5813 5815 5817 5820 5821 5820 5822 5829 5833 5832 5832 5834 5835 5836 5836 5837 5839 5840 5840 5841 5841 5841 5842 5843 5843 5843 5843 5844 5844 5844 5844 5844 5844 5844 5844 5844 5844 5843 5843 5842 5841 5841 5841 5840 5839 5838 5837 5837 5836 5835 5835 5834 5833 5832 5832 5831 5830 5828 5827 5826 5824 5823 5821 5820 5818 5817
5771 5774 5776 5779 5782 5785 5787 5788 5790 5792 5794 5796 5798 5800 5801 5802 5804 5805 5807 5809 5810 5811 5814 5816 5819 5819 5818 5825 5830 5830 5830 5832 5832 5832 5833 5835 5836 5837 5837 5838 5838 5838 5838 5839 5839 5840 5840 5841 5841 5841 5841 5841 5840 5840 5840 5840 5839 5839 5838 5838 5837 5837 5837 5836 5835 5834 5834 5833 5832 5832 5831 5830 5829 5829 5828 5827 5826 5825 5824 5822 5821 5819 5818 5816 5815 5813
5768 5770 5773 5776 5778 5781 5783 5784 5786 5788 5790 5793 5794 5796 5798 5799 5800 5802 5803 5805 5806 5808 5811 5812 5815 5816 5815 5821 5828 5827 5828 5829 5829 5830 5831 5832 5833 5834 5834 5834 5834 5835 5835 5836 5836 5836 5837 5837 5838 5838 5838 5837 5837 5837 5837 5836 5835 5835 5834 5833 5833 5833 5832 5832 5831 5830 5830 5829 5828 5828 5827 5826 5826 5825 5824 5823 5822 5821 5819 5818 5817 5816 5814 5813 5811 5809
5764 5767 5769 5772 5774 5777 5779 5781 5783 5785 5788 5789 5791 5793 5794 5795 5797 5798 5800 5801 5803 5806 5808 5809 5812 5813 5813 5818 5823 5823 5825 5826 5826 5827 5829 5829 5830 5830 5830 5831 5831 5831 5831 5832 5832 5833 5833 5834 5834 5834 5834 5834 5834 5834 5833 5832 5832 5831 5830 5828 5828 5828 5828 5828 5827 5826 5825 5825 5824 5824 5823 5823 5822 5821 5820 5819 5817 5816 5815 5814 5812 5811 5810 5808 5807 5805
5762 5764 5766 5769 5771 5774 5775 5778 5780 5782 5784 5786 5788 5789 5791 5792 5793 5795 5797 5798 5800 5802 5803 5805 5807 5809 5811 5815 5817 5819 5822 5823 5824 5824 5825 5826 5826 5826 5827 5828 5828 5828 5828 5828 5828 5829 5830 5830 5830 5831 5830 5830 5830 5830 5829 5829 5828 5827 5826 5825 5824 5823 5823 5823 5823 5822 5821 5820 5820 5820 5819 5819 5818 5817 5816 5814 5813 5812 5811 5809 5808 5807 5805 5803 5802 5800
5759 5761 5765 5767 5769 5771 5773 5775 5777 5779 5780 5781 5784 5785 5787 5789 5790 5792 5793 5794 5797 5798 5799 5800 5802 5805 5809 5812 5813 5816 5819 5821 5821 5821 5821 5821 5822 5823 5823 5824 5824 5824 5824 5824 5824 5825 5825 5826 5827 5826 5826 5826 5826 5826 5825 5825 5824 5823 5822 5821 5820 5819 5819 5818 5818 5817 5817 5816 5816 5815 5815 5814 5814 5812 5811 5809 5808 5807 5806 5805 5803 5802 5800 5798 5796 5795
5754 5757 5761 5763 5765 5768 5769 5771 5772 5773 5775 5776 5779 5781 5783 5785 5786 5787 5789 5790 5792 5793 5794 5796 5798 5803 5807 5808 5810 5812 5814 5816 5817 5817 5817 5817 5817 5817 5818 5819 5820 5820 5820 5820 5820 5820 5821 5822 5822 5822 5822 5821 5821 5821 5821 5820 5819 5818 5817 5816 5816 5815 5814 5814 5813 5813 5812 5812 5812 5811 5810 5810 5809 5807 5806 5804 5803 5802 5801 5800 5798 5796 5794 5793 5791 5789
5751 5754 5757 5758 5760 5762 5764 5766 5767 5769 5771 5773 5775 5777 5780 5781 5782 5783 5785 5787 5788 5788 5790 5793 5796 5801 5804 5804 5806 5808 5809 5811 5812 5813 5813 5813 5813 5813 5813 5814 5814 5815 5816 5816 5816 5816 5816 5817 5817 5817 5817 5817 5816 5816 5816 5815 5814 5813 5812 5812 5811 5811 5811 5811 5811 5810 5810 5809 5809 5808 5807 5806 5804 5802 5801 5799 5798 5797 5796 5794 5792 5791 5789 5787 5786 5784
5749 5751 5753 5755 5756 5757 5759 5761 5762 5765 5767 5769 5771 5774 5776 5776 5777 5779 5780 5782 5783 5784 5787 5790 5793 5797 5799 5801 5803 5804 5804 5805 5806 5808 5809 5809 5809 5809 5808 5809 5809 5810 5811 5811 5811 5812 5811 5811 5811 5811 5812 5812 5811 5811 5811 5810 5810 5809 5808 5808 5808 5808 5808 5808 5807 5807 5807 5806 5806 5805 5804 5802 5800 5798 5796 5795 5793 5792 5790 5789 5787 5785 5784 5782 5780 5779
5743 5745 5747 5749 5751 5753 5755 5755 5757 5760 5763 5765 5767 5769 5770 5770 5773 5775 5776 5778 5780 5781 5783 5787 5789 5792 5795 5797 5800 5800 5800 5800 5801 5802 5804 5805 5805 5804 5804 5805 5806 5807 5807 5807 5806 5806 5806 5806 5805 5806 5806 5806 5806 5806 5806 5806 5805 5805 5804 5804 5804 5804 5803 5803 5803 5802 5802 5802 5801 5801 5799 5797 5795 5793 5791 5789 5788 5786 5785 5783 5782 5780 5779 5777 5775 5774
5738 5739 5741 5743 5746 5747 5748 5750 5753 5757 5759 5761 5762 5763 5765 5766 5769 5771 5773 5774 5776 5778 5780 5782 5784 5788 5792 5794 5795 5795 5796 5796 5796 5797 5798 5799 5799 5799 5800 5801 5802 5803 5803 5802 5801 5801 5802 5801 5800 5800 5800 5800 5801 5801 5801 5801 5800 5800 5800 5799 5799 5798 5798 5797 5797 5797 5797 5797 5796 5794 5793 5791 5789 5787 5785 5783 5782 5780 5779 5778 5776 5775 5773 5772 5770 5769
5732 5733 5735 5737 5740 5741 5744 5747 5751 5753 5754 5756 5757 5759 5762 5764 5765 5767 5769 5771 5773 5774 5776 5777 5778 5783 5788 5789 5789 5791 5792 5792 5792 5792 5792 5793 5793 5793 5794 5796 5797 5797 5798 5798 5797 5796 5796 5795 5795 5795 5795 5795 5795 5795 5796 5795 5795 5795 5794 5793 5793 5792 5792 5792 5792 5792 5791 5791 5789 5788 5786 5785 5783 5781 5779 5777 5776 5774 5773 5772 5770 5769 5767 5766 5764 5763
5726 5728 5730 5731 5734 5738 5741 5744 5746 5747 5748 5750 5752 5755 5757 5759 5761 5762 5763 5766 5769 5769 5770 5771 5772 5778 5784 5785 5785 5786 5787 5788 5788 5788 5788 5788 5788 5788 5788 5789 5790 5791 5792 5792 5791 5791 5790 5790 5789 5789 5789 5789 5789 5789 5789 5789 5789 5788 5788 5788 5787 5786 5786 5786 5786 5786 5785 5784 5783 5782 5780 5779 5777 5775 5773 5771 5770 5768 5767 5765 5764 5762 5761 5760 5758 5756
5721 5722 5724 5726 5729 5733 5735 5737 5739 5740 5742 5744 5746 5750 5752 5753 5755 5756 5757 5761 5763 5762 5765 5766 5766 5773 5781 5782 5781 5782 5782 5783 5784 5784 5784 5783 5783 5783 5784 5784 5784 5785 5785 5785 5785 5784 5783 5783 5783 5783 5783 5782 5781 5782 5782 5783 5783 5782 5782 5781 5781 5780 5780 5780 5780 5779 5778 5778 5777 5775 5774 5772 5771 5769 5768 5766 5764 5763 5761 5759 5757 5756 5755 5753 5752 5750
5715 5715 5717 5720 5723 5725 5727 5730 5733 5734 5736 5739 5743 5747 5748 5749 5750 5751 5751 5754 5755 5757 5761 5762 5761 5769 5777 5778 5778 5778 5777 5778 5778 5778 5778 5778 5778 5779 5779 5779 5779 5779 5779 5778 5778 5777 5776 5776 5775 5775 5775 5774 5774 5775 5776 5776 5776 5775 5775 5774 5774 5774 5774 5774 5773 5772 5772 5771 5770 5769 5768 5766 5765 5763 5762 5760 5759 5757 5755 5753 5751 5749 5748 5746 5745 5744
5708 5708 5711 5713 5714 5717 5719 5722 5725 5729 5733 5736 5740 5742 5742 5743 5743 5743 5745 5747 5748 5753 5757 5756 5758 5768 5773 5773 5774 5772 5771 5771 5772 5772 5773 5773 5773 5773 5773 5773 5772 5772 5772 5771 5770 5770 5768 5768 5767 5767 5767 5768 5768 5769 5769 5769 5769 5768 5767 5766 5766 5766 5766 5767 5767 5766 5765 5764 5763 5762 5761 5760 5758 5757 5756 5754 5753 5751 5748 5747 5745 5743 5741 5740 5739 5738
5699 5700 5703 5705 5706 5709 5714 5718 5724 5729 5731 5732 5734 5736 5736 5737 5737 5739 5741 5740 5742 5750 5752 5750 5756 5766 5768 5767 5767 5766 5765 5765 5766 5768 5768 5768 5767 5767 5766 5766 5765 5765 5765 5764 5763 5762 5761 5761 5760 5760 5761 5762 5762 5762 5762 5762 5761 5760 5759 5758 5758 5759 5760 5761 5761 5760 5759 5758 5757 5756 5754 5753 5752 5750 5749 5747 5746 5744 5742 5740 5738 5736 5735 5733 5732 5731
5690 5692 5696 5699 5701 5706 5713 5718 5722 5724 5724 5725 5728 5730 5731 5731 5733 5734 5732 5732 5740 5746 5742 5744 5753 5759 5762 5761 5759 5760 5760 5760 5761 5761 5761 5760 5760 5760 5760 5759 5759 5759 5759 5759 5757 5755 5754 5754 5754 5754 5755 5755 5755 5755 5755 5754 5753 5752 5751 5751 5751 5752 5753 5754 5754 5753 5752 5752 5750 5749 5747 5746 5744 5743 5741 5740 5738 5736 5734 5733 5731 5730 5728 5727 5726 5725
5683 5685 5691 5695 5698 5704 5710 5711 5711 5713 5715 5718 5720 5721 5722 5723 5724 5724 5723 5729 5738 5735 5732 5743 5749 5749 5754 5756 5753 5755 5755 5753 5754 5753 5752 5752 5752 5752 5753 5754 5754 5754 5753 5752 5750 5748 5748 5748 5747 5746 5746 5747 5747 5747 5747 5746 5746 5745 5745 5744 5745 5745 5746 5746 5746 5745 5744 5744 5742 5741 5739 5738 5736 5735 5733 5731 5730 5728 5727 5725 5724 5723 5722 5720 5719 5718
5677 5681 5688 5691 5694 5700 5703 5702 5703 5706 5708 5710 5712 5712 5713 5714 5714 5715 5718 5726 5730 5724 5727 5741 5741 5738 5746 5750 5748 5751 5749 5746 5747 5746 5745 5745 5744 5745 5747 5750 5750 5748 5745 5743 5742 5741 5741 5741 5740 5738 5737 5738 5738 5738 5738 5738 5738 5738 5738 5738 5738 5738 5738 5738 5737 5736 5735 5735 5734 5732 5731 5730 5728 5727 5725 5723 5722 5720 5719 5718 5716 5716 5715 5713 5713 5712
5671 5677 5683 5685 5687 5693 5695 5694 5696 5699 5700 5702 5705 5705 5706 5707 5708 5710 5715 5722 5723 5718 5724 5732 5728 5729 5741 5744 5742 5744 5743 5740 5741 5740 5739 5739 5738 5739 5740 5742 5742 5740 5737 5736 5736 5734 5733 5732 5733 5732 5731 5731 5731 5731 5731 5731 5730 5730 5730 5730 5731 5731 5731 5730 5729 5728 5726 5725 5724 5723 5722 5721 5719 5718 5716 5715 5713 5712 5711 5710 5709 5708 5707 5707 5706 5705
5666 5672 5677 5678 5679 5684 5688 5688 5689 5690 5691 5693 5695 5697 5699 5701 5703 5707 5711 5716 5715 5712 5716 5720 5717 5724 5738 5738 5734 5737 5737 5735 5735 5735 5734 5733 5732 5732 5733 5733 5733 5731 5728 5729 5728 5727 5725 5725 5725 5726 5725 5725 5725 5725 5724 5723 5723 5723 5723 5723 5723 5723 5723 5722 5721 5720 5719 5718 5716 5715 5713 5712 5711 5709 5708 5707 5706 5705 5704 5703 5702 5701 5700 5700 5699 5698
5662 5666 5670 5671 5670 5675 5683 5682 5680 5682 5682 5680 5684 5690 5694 5697 5700 5703 5706 5707 5706 5704 5708 5709 5709 5720 5734 5731 5726 5729 5730 5727 5728 5729 5727 5726 5725 5725 5725 5726 5726 5723 5722 5722 5721 5719 5719 5718 5718 5718 5718 5719 5719 5719 5718 5716 5716 5716 5715 5716 5716 5716 5715 5714 5714 5712 5711 5710 5708 5706 5705 5704 5703 5702 5701 5700 5699 5698 5697 5696 5695 5694 5693 5693 5692 5692
5656 5659 5663 5664 5662 5669 5676 5673 5672 5673 5668 5666 5678 5690 5693 5694 5695 5696 5696 5697 5699 5699 5700 5700 5704 5716 5724 5720 5717 5721 5720 5718 5720 5721 5718 5717 5718 5718 5719 5720 5719 5718 5716 5715 5714 5713 5712 5712 5711 5710 5710 5711 5711 5712 5711 5710 5709 5708 5708 5707 5707 5707 5707 5706 5705 5703 5702 5701 5700 5698 5697 5696 5696 5695 5694 5693 5692 5691 5690 5689 5688 5687 5686 5686 5686 5685
5649 5653 5656 5656 5656 5662 5667 5665 5663 5658 5653 5664 5684 5692 5688 5686 5686 5685 5686 5690 5694 5693 5692 5693 5699 5706 5710 5709 5711 5712 5711 5710 5712 5712 5711 5710 5710 5710 5712 5713 5712 5712 5710 5709 5708 5707 5706 5705 5704 5703 5703 5703 5704 5704 5703 5702 5701 5699 5699 5699 5698 5698 5697 5696 5695 5694 5693 5692 5691 5690 5690 5689 5689 5688 5687 5686 5685 5684 5683 5682 5681 5680 5679 5679 5679 5678
5644 5647 5648 5648 5650 5654 5657 5656 5650 5643 5650 5671 5684 5682 5679 5678 5677 5675 5677 5683 5686 5685 5684 5686 5690 5696 5701 5703 5704 5703 5701 5701 5701 5701 5702 5701 5701 5702 5703 5704 5704 5704 5704 5703 5702 5701 5700 5698 5697 5696 5696 5696 5696 5696 5695 5693 5692 5690 5690 5689 5688 5688 5687 5686 5686 5686 5685 5684 5683 5682 5682 5681 5681 5680 5680 5679 5678 5677 5676 5674 5674 5673 5672 5672 5671 5670
5639 5640 5640 5642 5643 5645 5647 5645 5640 5640 5653 5667 5671 5671 5674 5672 5669 5668 5668 5672 5678 5680 5678 5679 5683 5689 5693 5694 5694 5692 5691 5690 5690 5691 5692 5692 5693 5694 5694 5695 5696 5696 5696 5696 5695 5694 5693 5692 5690 5689 5689 5689 5688 5687 5686 5685 5683 5682 5681 5680 5679 5678 5678 5678 5678 5678 5677 5676 5675 5674 5673 5672 5672 5672 5671 5671 5670 5669 5668 5667 5666 5664 5663 5664 5663 5661
5632 5632 5634 5635 5635 5638 5639 5638 5638 5640 5646 5654 5662 5669 5670 5665 5663 5662 5658 5662 5672 5674 5671 5672 5676 5680 5684 5685 5684 5683 5681 5681 5681 5683 5684 5683 5684 5686 5686 5687 5687 5687 5687 5687 5687 5686 5685 5684 5683 5681 5681 5681 5680 5679 5678 5676 5675 5674 5673 5672 5671 5670 5670 5671 5671 5670 5669 5668 5667 5666 5664 5663 5663 5663 5662 5661 5661 5660 5659 5658 5656 5655 5654 5653 5653 5651
5623 5625 5629 5628 5628 5632 5633 5632 5633 5632 5635 5648 5660 5663 5660 5655 5655 5654 5648 5652 5665 5669 5666 5667 5669 5672 5675 5676 5675 5674 5672 5671 5674 5677 5676 5675 5676 5678 5678 5678 5679 5679 5679 5679 5678 5678 5677 5675 5675 5674 5673 5673 5673 5671 5670 5669 5667 5666 5665 5664 5663 5663 5663 5663 5662 5662 5661 5660 5658 5657 5656 5655 5654 5654 5653 5652 5650 5649 5648 5646 5644 5643 5641 5640 5640 5639
5615 5617 5621 5620 5620 5624 5625 5624 5625 5624 5632 5647 5653 5651 5649 5646 5646 5646 5640 5644 5660 5664 5660 5660 5661 5663 5667 5667 5666 5666 5664 5663 5668 5670 5668 5667 5669 5670 5669 5670 5671 5671 5671 5670 5670 5669 5668 5667 5667 5666 5665 5666 5665 5664 5663 5661 5660 5659 5657 5656 5655 5655 5656 5655 5654 5653 5653 5651 5650 5648 5646 5645 5644 5644 5643 5642 5640 5638 5637 5635 5633 5631 5629 5627 5627 5626
5607 5609 5611 5610 5611 5615 5617 5616 5617 5620 5629 5641 5643 5642 5641 5638 5638 5637 5632 5639 5655 5657 5653 5653 5654 5656 5660 5658 5657 5658 5656 5657 5661 5661 5659 5661 5662 5661 5662 5662 5663 5663 5663 5663 5662 5662 5661 5659 5658 5658 5658 5657 5657 5657 5655 5653 5652 5651 5649 5648 5648 5648 5647 5647 5646 5645 5644 5643 5641 5639 5637 5636 5634 5633 5632 5631 5630 5629 5627 5625 5623 5621 5619 5617 5615 5614
5600 5602 5604 5604 5606 5608 5609 5609 5610 5614 5625 5634 5635 5634 5633 5628 5627 5627 5629 5639 5648 5647 5646 5646 5645 5648 5652 5650 5649 5650 5649 5649 5652 5652 5652 5653 5653 5653 5655 5655 5655 5656 5656 5655 5655 5654 5653 5651 5650 5649 5649 5649 5649 5648 5647 5646 5644 5642 5641 5640 5640 5639 5639 5639 5638 5637 5635 5634 5632 5630 5628 5626 5624 5623 5621 5620 5619 5619 5618 5615 5612 5611 5609 5607 5605 5603
5594 5595 5596 5599 5601 5602 5604 5604 5603 5607 5620 5629 5628 5625 5623 5618 5617 5623 5630 5635 5636 5636 5639 5638 5636 5640 5643 5642 5641 5642 5641 5642 5643 5643 5645 5645 5645 5646 5647 5647 5647 5648 5647 5647 5647 5646 5645 5644 5642 5641 5640 5640 5640 5639 5638 5637 5636 5634 5633 5632 5631 5631 5630 5630 5629 5628 5626 5624 5622 5620 5618 5616 5614 5612 5611 5609 5608 5608 5608 5605 5601 5600 5598 5596 5594 5592
5587 5588 5588 5593 5597 5598 5598 5597 5596 5603 5618 5624 5619 5615 5614 5611 5613 5619 5624 5624 5625 5628 5630 5629 5629 5631 5633 5633 5634 5634 5633 5635 5635 5635 5637 5637 5637 5638 5638 5638 5639 5638 5638 5638 5637 5637 5636 5635 5633 5632 5630 5630 5630 5630 5629 5628 5626 5625 5624 5623 5622 5621 5621 5621 5620 5618 5616 5614 5611 5610 5608 5606 5604 5602 5600 5598 5597 5596 5596 5594 5591 5589 5587 5584 5582 5581
5579 5580 5582 5587 5591 5590 5588 5590 5593 5602 5613 5615 5611 5608 5607 5607 5609 5611 5612 5614 5616 5618 5620 5621 5622 5622 5623 5625 5625 5625 5625 5626 5626 5627 5628 5627 5628 5629 5628 5629 5629 5628 5628 5628 5627 5627 5626 5625 5624 5623 5620 5619 5619 5619 5619 5618 5617 5615 5613 5612 5611 5611 5611 5610 5609 5607 5605 5603 5601 5599 5597 5595 5593 5591 5589 5587 5585 5584 5584 5582 5579 5577 5575 5572 5570 5568
5572 5576 5578 5581 5582 5581 5581 5585 5590 5596 5601 5604 5604 5603 5601 5601 5604 5604 5604 5607 5609 5609 5611 5613 5613 5613 5614 5615 5616 5616 5617 5616 5616 5618 5618 5618 5619 5619 5618 5618 5618 5618 5618 5618 5617 5617 5616 5615 5614 5613 5610 5608 5607 5606 5606 5606 5605 5604 5602 5600 5599 5599 5599 5599 5597 5596 5593 5591 5589 5587 5585 5584 5582 5580 5577 5575 5573 5572 5571 5569 5567 5566 5564 5561 5558 5556
5565 5569 5571 5572 5572 5572 5574 5578 5583 5587 5591 5594 5595 5595 5594 5595 5597 5598 5598 5599 5601 5602 5604 5605 5605 5607 5607 5607 5608 5609 5608 5608 5608 5608 5608 5609 5609 5609 5608 5608 5608 5607 5607 5607 5606 5606 5606 5605 5604 5603 5601 5598 5595 5594 5594 5592 5592 5591 5590 5589 5587 5586 5586 5586 5585 5584 5582 5579 5578 5576 5573 5572 5571 5569 5567 5565 5562 5560 5559 5557 5555 5554 5553 5551 5548 5545
5558 5561 5562 5563 5564 5565 5567 5572 5577 5580 5582 5584 5586 5586 5587 5587 5588 5590 5590 5591 5592 5594 5596 5597 5599 5600 5600 5600 5601 5601 5600 5601 5600 5599 5599 5599 5599 5598 5599 5598 5597 5597 5596 5596 5595 5595 5595 5595 5593 5592 5591 5588 5585 5584 5582 5581 5579 5579 5578 5577 5577 5576 5575 5575 5574 5574 5571 5568 5567 5565 5562 5560 5559 5558 5557 5554 5552 5549 5548 5546 5543 5542 5542 5541 5537 5534
5552 5553 5554 5555 5557 5558 5560 5565 5570 5572 5573 5576 5578 5579 5580 5579 5580 5581 5582 5583 5585 5586 5587 5589 5590 5591 5592 5593 5592 5592 5592 5592 5592 5591 5591 5590 5589 5588 5588 5587 5587 5587 5586 5585 5585 5585 5584 5583 5582 5581 5580 5578 5576 5574 5572 5571 5569 5567 5566 5566 5565 5565 5565 5564 5563 5562 5561 5558 5556 5554 5552 5549 5548 5547 5545 5544 5542 5539 5537 5535 5533 5530 5530 5530 5525 5521
5544 5545 5547 5549 5550 5550 5554 5559 5563 5565 5566 5569 5570 5571 5572 5571 5571 5572 5573 5575 5576 5577 5578 5579 5580 5582 5583 5583 5583 5584 5583 5582 5582 5583 5582 5581 5581 5580 5579 5578 5577 5576 5576 5575 5575 5574 5574 5573 5571 5570 5569 5567 5566 5565 5563 5561 5559 5557 5556 5555 5554 5553 5553 5552 5551 5550 5548 5545 5543 5542 5540 5538 5537 5535 5533 5532 5531 5530 5527 5525 5521 5518 5518 5519 5514 5507
5536 5538 5542 5542 5542 5544 5550 5554 5555 5555 5557 5560 5562 5562 5562 5562 5563 5564 5565 5566 5567 5568 5569 5570 5571 5572 5573 5574 5574 5575 5574 5574 5573 5573 5572 5573 5573 5572 5571 5570 5569 5568 5567 5567 5565 5565 5564 5563 5561 5560 5559 5557 5556 5554 5553 5551 5549 5547 5546 5545 5543 5542 5541 5539 5539 5538 5536 5533 5532 5530 5528 5527 5525 5523 5521 5519 5518 5517 5516 5515 5511 5506 5503 5504 5503 5497
5531 5532 5535 5535 5536 5539 5544 5545 5544 5545 5549 5552 5552 5552 5553 5554 5554 5554 5556 5557 5558 5559 5560 5561 5562 5563 5564 5565 5565 5565 5565 5565 5565 5564 5564 5564 5564 5563 5563 5562 5561 5560 5559 5558 5557 5556 5555 5553 5552 5551 5549 5547 5546 5544 5542 5541 5538 5537 5535 5534 5533 5531 5529 5528 5527 5527 5526 5523 5521 5519 5517 5515 5514 5512 5509 5507 5505 5502 5501 5502 5502 5499 5493 5488 5487 5486